Lid_Strength_Index
-1 -0 0 3 11 12 15 13 9 11 10 7 6 7 8 8 9 13 2 1 0 0 -0 -1 -1 -2 -1 -1 -1 -2 -1 -1 -1 -1 -1 -1 -1 -1 -1 -1 -1 -1 -1 -1 -1 -1 -1 -1 -1
-0 0 2 7 13 16 15 11 11 9 8 6 6 7 8 10 5 4 3 0 -0 0 -0 -0 -1 -2 -1 -1 -2 -2 -1 -1 -1 -1 -1 -1 -1 -1 -1 -1 -1 -1 -1 -1 -1 -1 -1 -1 -1
0 1 7 10 13 16 15 11 10 8 6 6 7 5 7 8 4 4 1 0 -0 0 0 -0 -1 -1 -1 -1 -1 -1 -1 -1 -1 -1 -1 -1 -1 -2 -1 -1 -1 -1 -1 -1 -1 -1 -1 -1 -1
2 4 6 13 14 11 11 9 8 8 7 6 6 9 5 3 3 2 0 0 1 0 0 -1 -2 -1 -1 -1 -1 -1 -1 -1 -1 -1 -1 -1 -1 -1 -1 -1 -1 -1 -1 -1 -1 -1 -1 -1 -2
2 6 12 13 13 10 9 8 7 9 8 7 6 9 8 3 1 1 1 0 1 1 -0 -0 -2 -2 -2 -1 -1 -1 -1 -1 -1 -2 -1 -1 -1 -1 -1 -1 -1 -1 -1 -1 -1 -1 -1 -2 -1
8 7 13 15 13 10 8 7 7 8 7 7 8 8 7 2 2 1 1 1 0 0 -0 -0 -1 -2 -1 -2 -1 -1 -1 -1 -1 -1 -1 -1 -1 -2 -1 -1 -2 -1 -2 -2 -2 -2 -2 -1 -1
9 10 13 13 13 11 9 6 8 8 8 8 5 9 6 4 2 1 1 0 0 -0 -0 -0 -0 -1 -1 -1 -1 -1 -1 -1 -1 -1 -1 -1 -1 -1 -1 -1 -2 -2 -2 -2 -2 -2 -2 -2 -2
7 9 12 12 13 13 8 7 6 7 8 4 4 9 9 4 2 1 1 1 0 0 -0 0 0 0 0 -0 -1 -1 -1 -1 -1 -1 -1 -1 -1 -1 -1 -2 -2 -1 -2 -1 -1 -1 -1 -2 -2
4 12 14 12 12 11 7 9 6 5 6 5 5 5 4 2 2 2 2 2 1 1 0 1 1 0 0 0 -1 -1 -1 -1 -1 -1 -1 -1 0 0 -0 -1 -1 -1 -2 -1 -1 -1 -1 -1 -2
9 12 12 8 8 9 8 8 7 8 7 7 6 4 3 3 3 3 4 3 3 2 1 1 1 0 0 -0 0 0 -0 0 -0 0 0 0 0 1 -1 -1 -1 -1 -1 -1 -1 -1 -1 -1 -0
8 12 8 8 7 7 8 8 6 8 9 7 8 6 4 4 3 4 3 3 3 2 1 1 1 0 0 0 1 0 0 0 0 0 1 0 0 0 0 0 0 0 -1 0 -0 -0 -0 -0 0
11 8 8 7 6 7 8 7 8 7 7 5 5 4 5 5 4 4 4 3 2 2 1 1 0 0 1 0 0 0 0 0 0 1 1 1 1 1 0 0 0 0 0 0 0 0 -0 0 0
9 8 7 6 6 6 6 8 8 7 5 4 5 4 5 4 4 3 2 2 2 2 1 1 0 0 0 0 0 0 0 0 -0 2 1 1 1 0 0 0 0 0 0 1 2 1 1 0 0
7 7 7 6 7 6 7 8 7 7 5 5 5 5 5 4 4 3 3 3 2 2 1 1 0 0 1 0 0 0 0 0 0 1 2 0 1 1 1 1 0 1 1 1 1 1 1 1 1
8 9 9 7 7 7 6 9 9 6 5 6 6 5 5 4 3 4 3 3 2 2 1 1 1 0 1 1 0 1 0 0 1 0 1 0 1 1 0 1 1 1 1 1 0 1 0 2 1
9 11 13 8 7 7 7 12 9 6 7 7 6 5 5 4 4 3 2 2 2 1 2 1 0 1 1 1 1 1 1 1 1 0 0 0 0 1 1 1 1 1 1 1 0 1 1 1 1
13 15 12 10 7 8 8 11 8 6 7 8 7 6 5 5 4 3 2 2 2 2 2 1 1 1 1 1 1 0 1 1 1 0 0 0 0 -0 1 1 1 0 1 1 1 1 1 2 2
15 14 13 12 9 8 10 11 9 7 7 8 7 6 6 5 5 3 2 2 1 2 2 1 1 1 1 1 1 1 1 1 1 1 0 -0 0 0 0 1 1 1 2 1 1 2 1 4 3
11 11 12 10 8 9 10 10 10 8 8 8 7 7 6 6 4 3 2 2 2 2 2 1 1 1 1 1 2 2 3 2 2 1 1 0 1 0 0 1 1 1 2 1 2 1 3 2 3
12 13 13 11 9 10 10 10 9 9 8 8 8 7 6 5 5 4 3 2 2 2 2 2 1 1 1 1 1 2 2 2 1 1 1 0 0 0 1 0 1 1 1 1 1 2 2 3 2
12 13 13 12 10 10 10 12 10 9 8 7 7 6 6 6 5 4 4 3 2 2 2 2 1 1 1 1 1 1 1 1 1 2 1 1 -0 -0 0 0 1 1 1 1 2 2 3 4 2
12 10 11 12 12 15 11 18 13 11 10 8 8 7 6 5 5 4 4 3 3 2 2 2 2 1 1 1 1 2 2 3 2 2 1 1 0 0 0 0 1 1 1 1 2 1 2 2 3
10 9 10 11 14 15 13 14 14 11 12 10 8 7 6 5 5 4 4 3 2 2 2 1 1 1 1 1 1 1 2 2 1 2 2 1 0 0 0 0 1 1 1 2 1 1 2 3 3
7 9 10 12 15 17 14 14 15 13 11 10 8 7 6 5 5 4 3 3 3 2 2 2 2 2 1 1 1 1 2 2 2 3 3 2 1 0 0 0 1 1 1 2 2 1 1 2 2
9 12 17 17 18 16 13 15 12 10 9 8 8 7 6 5 5 4 4 4 3 3 2 2 2 2 1 1 1 1 1 1 2 2 3 3 2 2 1 0 1 1 1 1 2 2 1 2 2
10 11 16 21 19 16 14 16 14 8 7 7 6 6 5 5 5 4 4 3 3 3 2 2 2 2 2 1 1 1 1 1 1 1 2 2 2 1 0 0 1 1 1 1 1 2 2 1 2
11 13 11 16 18 17 14 15 13 11 7 7 7 6 6 5 5 4 4 3 3 3 3 2 2 2 2 2 1 1 1 1 1 1 1 1 2 1 1 0 0 0 0 1 2 2 2 1 2
9 10 14 16 18 18 17 16 15 13 11 8 8 7 6 5 5 4 4 3 3 3 2 2 2 2 2 1 1 1 1 1 1 1 2 2 2 1 0 0 0 0 0 1 2 2 1 1 1
12 12 12 12 16 16 19 14 13 12 11 10 7 6 6 5 5 4 4 3 3 2 2 2 2 2 2 2 1 1 1 1 1 1 1 1 2 1 1 0 0 1 1 1 1 1 1 2 1
10 12 15 14 16 18 17 14 10 10 10 10 8 6 5 5 5 4 4 3 3 3 3 3 2 2 2 1 1 2 1 1 1 1 1 2 1 2 1 1 1 1 1 1 1 1 1 1 2